owner,sensor,date,latitude,longitude,vertical_datum,wind_speed,wind_to_direction,wind_speed_of_gust,qcFlag 
DISL,ioos:station:DISL:KATA:1,2017-08-01T00:00:00Z,30.2583,-88.2131,0.0,3.49,158.3,-999.0,'1111122,1111122,1111122' 
DISL,ioos:station:DISL:KATA:1,2017-08-01T00:30:00Z,30.2583,-88.2131,0.0,3.39,164.1,-999.0,'1111122,1111122,1111122' 
DISL,ioos:station:DISL:KATA:1,2017-08-01T01:00:00Z,30.2583,-88.2131,0.0,3.04,144.0,-999.0,'1111122,1111122,1111122' 
DISL,ioos:station:DISL:KATA:1,2017-08-01T01:30:00Z,30.2583,-88.2131,0.0,2.32,138.7,-999.0,'1111122,1111122,1111122' 
DISL,ioos:station:DISL:KATA:1,2017-08-01T02:00:00Z,30.2583,-88.2131,0.0,2.37,132.0,-999.0,'1111122,1111122,1111122' 
DISL,ioos:station:DISL:KATA:1,2017-08-01T02:30:00Z,30.2583,-88.2131,0.0,2.63,123.5,-999.0,'1111122,1111122,1111122' 
DISL,ioos:station:DISL:KATA:1,2017-08-01T03:00:00Z,30.2583,-88.2131,0.0,2.17,119.4,-999.0,'1111122,1111122,1111122' 
DISL,ioos:station:DISL:KATA:1,2017-08-01T03:30:00Z,30.2583,-88.2131,0.0,1.79,115.6,-999.0,'1111122,1111122,1111122' 
DISL,ioos:station:DISL:KATA:1,2017-08-01T04:00:00Z,30.2583,-88.2131,0.0,2.14,98.7,-999.0,'1111122,1111122,1111122' 
DISL,ioos:station:DISL:KATA:1,2017-08-01T04:30:00Z,30.2583,-88.2131,0.0,2.5,107.3,-999.0,'1111122,1111122,1111122' 
DISL,ioos:station:DISL:KATA:1,2017-08-01T05:00:00Z,30.2583,-88.2131,0.0,2.36,119.5,-999.0,'1111122,1111122,1111122' 
DISL,ioos:station:DISL:KATA:1,2017-08-01T05:30:00Z,30.2583,-88.2131,0.0,3.47,64.54,-999.0,'1111122,1111122,1111122' 
DISL,ioos:station:DISL:KATA:1,2017-08-01T06:00:00Z,30.2583,-88.2131,0.0,5.98,82.4,-999.0,'1111122,1111122,1111122' 
DISL,ioos:station:DISL:KATA:1,2017-08-01T06:30:00Z,30.2583,-88.2131,0.0,6.16,84.0,-999.0,'1111122,1111122,1111122' 
DISL,ioos:station:DISL:KATA:1,2017-08-01T07:00:00Z,30.2583,-88.2131,0.0,6.21,82.7,-999.0,'1111122,1111122,1111122' 
DISL,ioos:station:DISL:KATA:1,2017-08-01T07:30:00Z,30.2583,-88.2131,0.0,6.1,82.7,-999.0,'1111122,1111122,1111122' 
DISL,ioos:station:DISL:KATA:1,2017-08-01T08:00:00Z,30.2583,-88.2131,0.0,6.46,87.8,-999.0,'1111122,1111122,1111122' 
DISL,ioos:station:DISL:KATA:1,2017-08-01T08:30:00Z,30.2583,-88.2131,0.0,6.58,83.5,-999.0,'1111122,1111122,1111122' 
DISL,ioos:station:DISL:KATA:1,2017-08-01T09:00:00Z,30.2583,-88.2131,0.0,6.31,86.9,-999.0,'1111122,1111122,1111122' 
DISL,ioos:station:DISL:KATA:1,2017-08-01T09:30:00Z,30.2583,-88.2131,0.0,5.94,85.2,-999.0,'1111122,1111122,1111122' 
DISL,ioos:station:DISL:KATA:1,2017-08-01T10:00:00Z,30.2583,-88.2131,0.0,5.52,84.0,-999.0,'1111122,1111122,1111122' 
DISL,ioos:station:DISL:KATA:1,2017-08-01T10:30:00Z,30.2583,-88.2131,0.0,6.19,83.7,-999.0,'1111122,1111122,1111122' 
DISL,ioos:station:DISL:KATA:1,2017-08-01T11:00:00Z,30.2583,-88.2131,0.0,6.17,87.2,-999.0,'1111122,1111122,1111122' 
DISL,ioos:station:DISL:KATA:1,2017-08-01T11:30:00Z,30.2583,-88.2131,0.0,5.24,81.9,-999.0,'1111122,1111122,1111122' 
DISL,ioos:station:DISL:KATA:1,2017-08-01T12:00:00Z,30.2583,-88.2131,0.0,5.16,79.05,-999.0,'1111122,1111122,1111122' 
DISL,ioos:station:DISL:KATA:1,2017-08-01T12:30:00Z,30.2583,-88.2131,0.0,5.2,78.59,-999.0,'1111122,1111122,1111122' 
DISL,ioos:station:DISL:KATA:1,2017-08-01T13:00:00Z,30.2583,-88.2131,0.0,5.45,80.2,-999.0,'1111122,1111122,1111122' 
DISL,ioos:station:DISL:KATA:1,2017-08-01T13:30:00Z,30.2583,-88.2131,0.0,6.07,79.87,-999.0,'1111122,1111122,1111122' 
DISL,ioos:station:DISL:KATA:1,2017-08-01T14:00:00Z,30.2583,-88.2131,0.0,6.64,79.15,-999.0,'1111122,1111122,1111122' 
DISL,ioos:station:DISL:KATA:1,2017-08-01T14:30:00Z,30.2583,-88.2131,0.0,6.63,80.2,-999.0,'1111122,1111122,1111122' 
DISL,ioos:station:DISL:KATA:1,2017-08-01T15:00:00Z,30.2583,-88.2131,0.0,6.5,75.39,-999.0,'1111122,1111122,1111122' 
DISL,ioos:station:DISL:KATA:1,2017-08-01T15:30:00Z,30.2583,-88.2131,0.0,6.52,77.18,-999.0,'1111122,1111122,1111122' 
DISL,ioos:station:DISL:KATA:1,2017-08-01T16:00:00Z,30.2583,-88.2131,0.0,6.37,75.6,-999.0,'1111122,1111122,1111122' 
DISL,ioos:station:DISL:KATA:1,2017-08-01T16:30:00Z,30.2583,-88.2131,0.0,5.84,79.47,-999.0,'1111122,1111122,1111122' 
DISL,ioos:station:DISL:KATA:1,2017-08-01T17:00:00Z,30.2583,-88.2131,0.0,4.61,87.8,-999.0,'1111122,1111122,1111122' 
DISL,ioos:station:DISL:KATA:1,2017-08-01T17:30:00Z,30.2583,-88.2131,0.0,4.61,68.98,-999.0,'1111122,1111122,1111122' 
DISL,ioos:station:DISL:KATA:1,2017-08-01T18:00:00Z,30.2583,-88.2131,0.0,4.51,99.2,-999.0,'1111122,1111122,1111122' 
DISL,ioos:station:DISL:KATA:1,2017-08-01T18:30:00Z,30.2583,-88.2131,0.0,3.63,88.5,-999.0,'1111122,1111122,1111122' 
DISL,ioos:station:DISL:KATA:1,2017-08-01T19:00:00Z,30.2583,-88.2131,0.0,3.15,95.3,-999.0,'1111122,1111122,1111122' 
DISL,ioos:station:DISL:KATA:1,2017-08-01T19:30:00Z,30.2583,-88.2131,0.0,2.89,74.76,-999.0,'1111122,1111122,1111122' 
DISL,ioos:station:DISL:KATA:1,2017-08-01T20:00:00Z,30.2583,-88.2131,0.0,3.45,128.2,-999.0,'1111122,1111122,1111122' 
DISL,ioos:station:DISL:KATA:1,2017-08-01T20:30:00Z,30.2583,-88.2131,0.0,3.37,127.6,-999.0,'1111122,1111122,1111122' 
DISL,ioos:station:DISL:KATA:1,2017-08-01T21:00:00Z,30.2583,-88.2131,0.0,3.41,130.9,-999.0,'1111122,1111122,1111122' 
DISL,ioos:station:DISL:KATA:1,2017-08-01T21:30:00Z,30.2583,-88.2131,0.0,3.89,136.1,-999.0,'1111122,1111122,1111122' 
DISL,ioos:station:DISL:KATA:1,2017-08-01T22:00:00Z,30.2583,-88.2131,0.0,2.8,132.3,-999.0,'1111122,1111122,1111122' 
DISL,ioos:station:DISL:KATA:1,2017-08-01T22:30:00Z,30.2583,-88.2131,0.0,3.34,142.8,-999.0,'1111122,1111122,1111122' 
DISL,ioos:station:DISL:KATA:1,2017-08-01T23:00:00Z,30.2583,-88.2131,0.0,3.72,143.2,-999.0,'1111122,1111122,1111122' 
DISL,ioos:station:DISL:KATA:1,2017-08-01T23:30:00Z,30.2583,-88.2131,0.0,3.94,144.5,-999.0,'1111122,1111122,1111122' 
DISL,ioos:station:DISL:KATA:1,2017-08-02T00:00:00Z,30.2583,-88.2131,0.0,4.01,139.4,-999.0,'1111122,1111122,1111122' 
DISL,ioos:station:DISL:KATA:1,2017-08-02T00:30:00Z,30.2583,-88.2131,0.0,3.42,165.8,-999.0,'1111122,1111122,1111122' 
DISL,ioos:station:DISL:KATA:1,2017-08-02T01:00:00Z,30.2583,-88.2131,0.0,3.77,169.6,-999.0,'1111122,1111122,1111122' 
DISL,ioos:station:DISL:KATA:1,2017-08-02T01:30:00Z,30.2583,-88.2131,0.0,4.82,154.9,-999.0,'1111122,1111122,1111122' 
DISL,ioos:station:DISL:KATA:1,2017-08-02T02:00:00Z,30.2583,-88.2131,0.0,3.75,159.6,-999.0,'1111122,1111122,1111122' 
DISL,ioos:station:DISL:KATA:1,2017-08-02T02:30:00Z,30.2583,-88.2131,0.0,2.85,153.4,-999.0,'1111122,1111122,1111122' 
DISL,ioos:station:DISL:KATA:1,2017-08-02T03:00:00Z,30.2583,-88.2131,0.0,3.15,149.6,-999.0,'1111122,1111122,1111122' 
DISL,ioos:station:DISL:KATA:1,2017-08-02T03:30:00Z,30.2583,-88.2131,0.0,3.54,138.5,-999.0,'1111122,1111122,1111122' 
DISL,ioos:station:DISL:KATA:1,2017-08-02T04:00:00Z,30.2583,-88.2131,0.0,3.52,141.0,-999.0,'1111122,1111122,1111122' 
DISL,ioos:station:DISL:KATA:1,2017-08-02T04:30:00Z,30.2583,-88.2131,0.0,3.7,132.9,-999.0,'1111122,1111122,1111122' 
DISL,ioos:station:DISL:KATA:1,2017-08-02T05:00:00Z,30.2583,-88.2131,0.0,3.03,126.9,-999.0,'1111122,1111122,1111122' 
DISL,ioos:station:DISL:KATA:1,2017-08-02T05:30:00Z,30.2583,-88.2131,0.0,2.1,119.7,-999.0,'1111122,1111122,1111122' 
DISL,ioos:station:DISL:KATA:1,2017-08-02T06:00:00Z,30.2583,-88.2131,0.0,1.9,110.5,-999.0,'1111122,1111122,1111122' 
DISL,ioos:station:DISL:KATA:1,2017-08-02T06:30:00Z,30.2583,-88.2131,0.0,1.56,94.9,-999.0,'1111122,1111122,1111122' 
DISL,ioos:station:DISL:KATA:1,2017-08-02T07:00:00Z,30.2583,-88.2131,0.0,2.06,89.8,-999.0,'1111122,1111122,1111122' 
DISL,ioos:station:DISL:KATA:1,2017-08-02T07:30:00Z,30.2583,-88.2131,0.0,2.27,89.7,-999.0,'1111122,1111122,1111122' 
DISL,ioos:station:DISL:KATA:1,2017-08-02T08:00:00Z,30.2583,-88.2131,0.0,2.43,89.2,-999.0,'1111122,1111122,1111122' 
DISL,ioos:station:DISL:KATA:1,2017-08-02T08:30:00Z,30.2583,-88.2131,0.0,2.43,90.0,-999.0,'1111122,1111122,1111122' 
DISL,ioos:station:DISL:KATA:1,2017-08-02T09:00:00Z,30.2583,-88.2131,0.0,2.56,68.94,-999.0,'1111122,1111122,1111122' 
DISL,ioos:station:DISL:KATA:1,2017-08-02T09:30:00Z,30.2583,-88.2131,0.0,3.93,42.38,-999.0,'1111122,1111122,1111122' 
DISL,ioos:station:DISL:KATA:1,2017-08-02T10:00:00Z,30.2583,-88.2131,0.0,3.84,30.66,-999.0,'1111122,1111122,1111122' 
DISL,ioos:station:DISL:KATA:1,2017-08-02T10:30:00Z,30.2583,-88.2131,0.0,4.72,26.38,-999.0,'1111122,1111122,1111122' 
DISL,ioos:station:DISL:KATA:1,2017-08-02T11:00:00Z,30.2583,-88.2131,0.0,5.32,31.84,-999.0,'1111122,1111122,1111122' 
DISL,ioos:station:DISL:KATA:1,2017-08-02T11:30:00Z,30.2583,-88.2131,0.0,5.59,30.8,-999.0,'1111122,1111122,1111122' 
DISL,ioos:station:DISL:KATA:1,2017-08-02T12:00:00Z,30.2583,-88.2131,0.0,4.92,31.67,-999.0,'1111122,1111122,1111122' 
DISL,ioos:station:DISL:KATA:1,2017-08-02T12:30:00Z,30.2583,-88.2131,0.0,5.37,27.97,-999.0,'1111122,1111122,1111122' 
DISL,ioos:station:DISL:KATA:1,2017-08-02T13:00:00Z,30.2583,-88.2131,0.0,6.28,39.57,-999.0,'1111122,1111122,1111122' 
DISL,ioos:station:DISL:KATA:1,2017-08-02T13:30:00Z,30.2583,-88.2131,0.0,6.79,52.55,-999.0,'1111122,1111122,1111122' 
DISL,ioos:station:DISL:KATA:1,2017-08-02T14:00:00Z,30.2583,-88.2131,0.0,6.06,48.76,-999.0,'1111122,1111122,1111122' 
DISL,ioos:station:DISL:KATA:1,2017-08-02T14:30:00Z,30.2583,-88.2131,0.0,5.22,62.76,-999.0,'1111122,1111122,1111122' 
DISL,ioos:station:DISL:KATA:1,2017-08-02T15:00:00Z,30.2583,-88.2131,0.0,4.75,73.8,-999.0,'1111122,1111122,1111122' 
DISL,ioos:station:DISL:KATA:1,2017-08-02T15:30:00Z,30.2583,-88.2131,0.0,3.79,72.77,-999.0,'1111122,1111122,1111122' 
DISL,ioos:station:DISL:KATA:1,2017-08-02T16:00:00Z,30.2583,-88.2131,0.0,3.74,64.81,-999.0,'1111122,1111122,1111122' 
DISL,ioos:station:DISL:KATA:1,2017-08-02T16:30:00Z,30.2583,-88.2131,0.0,3.38,62.06,-999.0,'1111122,1111122,1111122' 
DISL,ioos:station:DISL:KATA:1,2017-08-02T17:00:00Z,30.2583,-88.2131,0.0,3.23,67.76,-999.0,'1111122,1111122,1111122' 
DISL,ioos:station:DISL:KATA:1,2017-08-02T17:30:00Z,30.2583,-88.2131,0.0,3.3,81.0,-999.0,'1111122,1111122,1111122' 
DISL,ioos:station:DISL:KATA:1,2017-08-02T18:00:00Z,30.2583,-88.2131,0.0,2.93,76.63,-999.0,'1111122,1111122,1111122' 
DISL,ioos:station:DISL:KATA:1,2017-08-02T18:30:00Z,30.2583,-88.2131,0.0,4.0,104.2,-999.0,'1111122,1111122,1111122' 
DISL,ioos:station:DISL:KATA:1,2017-08-02T19:00:00Z,30.2583,-88.2131,0.0,3.21,120.6,-999.0,'1111122,1111122,1111122' 
DISL,ioos:station:DISL:KATA:1,2017-08-02T19:30:00Z,30.2583,-88.2131,0.0,4.3,143.4,-999.0,'1111122,1111122,1111122' 
DISL,ioos:station:DISL:KATA:1,2017-08-02T20:00:00Z,30.2583,-88.2131,0.0,3.77,125.2,-999.0,'1111122,1111122,1111122' 
DISL,ioos:station:DISL:KATA:1,2017-08-02T20:30:00Z,30.2583,-88.2131,0.0,3.77,132.3,-999.0,'1111122,1111122,1111122' 
DISL,ioos:station:DISL:KATA:1,2017-08-02T21:00:00Z,30.2583,-88.2131,0.0,4.24,132.4,-999.0,'1111122,1111122,1111122' 
DISL,ioos:station:DISL:KATA:1,2017-08-02T21:30:00Z,30.2583,-88.2131,0.0,3.95,135.3,-999.0,'1111122,1111122,1111122' 
DISL,ioos:station:DISL:KATA:1,2017-08-02T22:00:00Z,30.2583,-88.2131,0.0,3.92,137.3,-999.0,'1111122,1111122,1111122' 
DISL,ioos:station:DISL:KATA:1,2017-08-02T22:30:00Z,30.2583,-88.2131,0.0,4.29,150.9,-999.0,'1111122,1111122,1111122' 
DISL,ioos:station:DISL:KATA:1,2017-08-02T23:00:00Z,30.2583,-88.2131,0.0,4.82,161.2,-999.0,'1111122,1111122,1111122' 
DISL,ioos:station:DISL:KATA:1,2017-08-02T23:30:00Z,30.2583,-88.2131,0.0,4.59,161.4,-999.0,'1111122,1111122,1111122' 
DISL,ioos:station:DISL:KATA:1,2017-08-03T00:00:00Z,30.2583,-88.2131,0.0,4.41,172.4,-999.0,'1111122,1111122,1111122' 
DISL,ioos:station:DISL:KATA:1,2017-08-03T00:30:00Z,30.2583,-88.2131,0.0,3.89,193.2,-999.0,'1111122,1111122,1111122' 
DISL,ioos:station:DISL:KATA:1,2017-08-03T01:00:00Z,30.2583,-88.2131,0.0,3.77,202.0,-999.0,'1111122,1111122,1111122' 
DISL,ioos:station:DISL:KATA:1,2017-08-03T01:30:00Z,30.2583,-88.2131,0.0,3.89,200.3,-999.0,'1111122,1111122,1111122' 
DISL,ioos:station:DISL:KATA:1,2017-08-03T02:00:00Z,30.2583,-88.2131,0.0,4.07,198.9,-999.0,'1111122,1111122,1111122' 
DISL,ioos:station:DISL:KATA:1,2017-08-03T02:30:00Z,30.2583,-88.2131,0.0,4.49,187.4,-999.0,'1111122,1111122,1111122' 
DISL,ioos:station:DISL:KATA:1,2017-08-03T03:00:00Z,30.2583,-88.2131,0.0,3.77,197.3,-999.0,'1111122,1111122,1111122' 
DISL,ioos:station:DISL:KATA:1,2017-08-03T03:30:00Z,30.2583,-88.2131,0.0,3.61,203.4,-999.0,'1111122,1111122,1111122' 
DISL,ioos:station:DISL:KATA:1,2017-08-03T04:00:00Z,30.2583,-88.2131,0.0,2.16,223.4,-999.0,'1111122,1111122,1111122' 
DISL,ioos:station:DISL:KATA:1,2017-08-03T04:30:00Z,30.2583,-88.2131,0.0,2.8,196.9,-999.0,'1111122,1111122,1111122' 
DISL,ioos:station:DISL:KATA:1,2017-08-03T05:00:00Z,30.2583,-88.2131,0.0,2.42,189.1,-999.0,'1111122,1111122,1111122' 
DISL,ioos:station:DISL:KATA:1,2017-08-03T05:30:00Z,30.2583,-88.2131,0.0,2.47,208.9,-999.0,'1111122,1111122,1111122' 
DISL,ioos:station:DISL:KATA:1,2017-08-03T06:00:00Z,30.2583,-88.2131,0.0,2.22,339.6,-999.0,'1111122,1111122,1111122' 
DISL,ioos:station:DISL:KATA:1,2017-08-03T06:30:00Z,30.2583,-88.2131,0.0,2.63,22.0,-999.0,'1111122,1111122,1111122' 
DISL,ioos:station:DISL:KATA:1,2017-08-03T07:00:00Z,30.2583,-88.2131,0.0,4.12,10.19,-999.0,'1111122,1111122,1111122' 
DISL,ioos:station:DISL:KATA:1,2017-08-03T07:30:00Z,30.2583,-88.2131,0.0,4.98,6.653,-999.0,'1111122,1111122,1111122' 
DISL,ioos:station:DISL:KATA:1,2017-08-03T08:00:00Z,30.2583,-88.2131,0.0,4.68,18.76,-999.0,'1111122,1111122,1111122' 
DISL,ioos:station:DISL:KATA:1,2017-08-03T08:30:00Z,30.2583,-88.2131,0.0,5.03,16.37,-999.0,'1111122,1111122,1111122' 
DISL,ioos:station:DISL:KATA:1,2017-08-03T09:00:00Z,30.2583,-88.2131,0.0,3.15,35.78,-999.0,'1111122,1111122,1111122' 
DISL,ioos:station:DISL:KATA:1,2017-08-03T09:30:00Z,30.2583,-88.2131,0.0,4.68,357.7,-999.0,'1111122,1111122,1111122' 
DISL,ioos:station:DISL:KATA:1,2017-08-03T10:00:00Z,30.2583,-88.2131,0.0,6.97,11.68,-999.0,'1111122,1111122,1111122' 
DISL,ioos:station:DISL:KATA:1,2017-08-03T10:30:00Z,30.2583,-88.2131,0.0,7.58,25.44,-999.0,'1111122,1111122,1111122' 
DISL,ioos:station:DISL:KATA:1,2017-08-03T11:00:00Z,30.2583,-88.2131,0.0,7.57,38.13,-999.0,'1111122,1111122,1111122' 
DISL,ioos:station:DISL:KATA:1,2017-08-03T11:30:00Z,30.2583,-88.2131,0.0,7.21,29.64,-999.0,'1111122,1111122,1111122' 
DISL,ioos:station:DISL:KATA:1,2017-08-03T12:00:00Z,30.2583,-88.2131,0.0,6.33,41.64,-999.0,'1111122,1111122,1111122' 
DISL,ioos:station:DISL:KATA:1,2017-08-03T12:30:00Z,30.2583,-88.2131,0.0,4.72,2.44,-999.0,'1111122,1111122,1111122' 
DISL,ioos:station:DISL:KATA:1,2017-08-03T13:00:00Z,30.2583,-88.2131,0.0,6.17,51.13,-999.0,'1111122,1111122,1111122' 
DISL,ioos:station:DISL:KATA:1,2017-08-03T13:30:00Z,30.2583,-88.2131,0.0,7.59,66.11,-999.0,'1111122,1111122,1111122' 
DISL,ioos:station:DISL:KATA:1,2017-08-03T14:00:00Z,30.2583,-88.2131,0.0,7.46,79.25,-999.0,'1111122,1111122,1111122' 
DISL,ioos:station:DISL:KATA:1,2017-08-03T14:30:00Z,30.2583,-88.2131,0.0,6.88,73.46,-999.0,'1111122,1111122,1111122' 
DISL,ioos:station:DISL:KATA:1,2017-08-03T15:00:00Z,30.2583,-88.2131,0.0,6.76,82.5,-999.0,'1111122,1111122,1111122' 
DISL,ioos:station:DISL:KATA:1,2017-08-03T15:30:00Z,30.2583,-88.2131,0.0,6.81,105.1,-999.0,'1111122,1111122,1111122' 
DISL,ioos:station:DISL:KATA:1,2017-08-03T16:00:00Z,30.2583,-88.2131,0.0,6.8,106.4,-999.0,'1111122,1111122,1111122' 
DISL,ioos:station:DISL:KATA:1,2017-08-03T16:30:00Z,30.2583,-88.2131,0.0,5.83,96.7,-999.0,'1111122,1111122,1111122' 
DISL,ioos:station:DISL:KATA:1,2017-08-03T17:00:00Z,30.2583,-88.2131,0.0,5.96,96.4,-999.0,'1111122,1111122,1111122' 
DISL,ioos:station:DISL:KATA:1,2017-08-03T17:30:00Z,30.2583,-88.2131,0.0,6.33,73.82,-999.0,'1111122,1111122,1111122' 
DISL,ioos:station:DISL:KATA:1,2017-08-03T18:00:00Z,30.2583,-88.2131,0.0,6.62,63.7,-999.0,'1111122,1111122,1111122' 
DISL,ioos:station:DISL:KATA:1,2017-08-03T18:30:00Z,30.2583,-88.2131,0.0,6.71,88.4,-999.0,'1111122,1111122,1111122' 
DISL,ioos:station:DISL:KATA:1,2017-08-03T19:00:00Z,30.2583,-88.2131,0.0,6.43,75.86,-999.0,'1111122,1111122,1111122' 
DISL,ioos:station:DISL:KATA:1,2017-08-03T19:30:00Z,30.2583,-88.2131,0.0,4.12,68.74,-999.0,'1111122,1111122,1111122' 
DISL,ioos:station:DISL:KATA:1,2017-08-03T20:00:00Z,30.2583,-88.2131,0.0,3.71,63.9,-999.0,'1111122,1111122,1111122' 
DISL,ioos:station:DISL:KATA:1,2017-08-03T20:30:00Z,30.2583,-88.2131,0.0,4.89,35.28,-999.0,'1111122,1111122,1111122' 
DISL,ioos:station:DISL:KATA:1,2017-08-03T21:00:00Z,30.2583,-88.2131,0.0,4.39,52.17,-999.0,'1111122,1111122,1111122' 
DISL,ioos:station:DISL:KATA:1,2017-08-03T21:30:00Z,30.2583,-88.2131,0.0,3.39,55.5,-999.0,'1111122,1111122,1111122' 
DISL,ioos:station:DISL:KATA:1,2017-08-03T22:00:00Z,30.2583,-88.2131,0.0,2.12,84.7,-999.0,'1111122,1111122,1111122' 
DISL,ioos:station:DISL:KATA:1,2017-08-03T22:30:00Z,30.2583,-88.2131,0.0,4.24,64.13,-999.0,'1111122,1111122,1111122' 
DISL,ioos:station:DISL:KATA:1,2017-08-03T23:00:00Z,30.2583,-88.2131,0.0,3.63,79.26,-999.0,'1111122,1111122,1111122' 
DISL,ioos:station:DISL:KATA:1,2017-08-03T23:30:00Z,30.2583,-88.2131,0.0,2.42,63.58,-999.0,'1111122,1111122,1111122' 
DISL,ioos:station:DISL:KATA:1,2017-08-04T00:00:00Z,30.2583,-88.2131,0.0,2.22,69.65,-999.0,'1111122,1111122,1111122' 
DISL,ioos:station:DISL:KATA:1,2017-08-04T00:30:00Z,30.2583,-88.2131,0.0,2.67,80.6,-999.0,'1111122,1111122,1111122' 
DISL,ioos:station:DISL:KATA:1,2017-08-04T01:00:00Z,30.2583,-88.2131,0.0,2.4,100.8,-999.0,'1111122,1111122,1111122' 
DISL,ioos:station:DISL:KATA:1,2017-08-04T01:30:00Z,30.2583,-88.2131,0.0,2.36,124.7,-999.0,'1111122,1111122,1111122' 
DISL,ioos:station:DISL:KATA:1,2017-08-04T02:00:00Z,30.2583,-88.2131,0.0,4.34,202.6,-999.0,'1111122,1111122,1111122' 
DISL,ioos:station:DISL:KATA:1,2017-08-04T02:30:00Z,30.2583,-88.2131,0.0,5.09,202.9,-999.0,'1111122,1111122,1111122' 
DISL,ioos:station:DISL:KATA:1,2017-08-04T03:00:00Z,30.2583,-88.2131,0.0,5.9,209.9,-999.0,'1111122,1111122,1111122' 
DISL,ioos:station:DISL:KATA:1,2017-08-04T03:30:00Z,30.2583,-88.2131,0.0,5.12,217.1,-999.0,'1111122,1111122,1111122' 
DISL,ioos:station:DISL:KATA:1,2017-08-04T04:00:00Z,30.2583,-88.2131,0.0,6.39,211.8,-999.0,'1111122,1111122,1111122' 
DISL,ioos:station:DISL:KATA:1,2017-08-04T04:30:00Z,30.2583,-88.2131,0.0,7.7,220.8,-999.0,'1111122,1111122,1111122' 
DISL,ioos:station:DISL:KATA:1,2017-08-04T05:00:00Z,30.2583,-88.2131,0.0,7.36,217.0,-999.0,'1111122,1111122,1111122' 
DISL,ioos:station:DISL:KATA:1,2017-08-04T05:30:00Z,30.2583,-88.2131,0.0,6.66,221.5,-999.0,'1111122,1111122,1111122' 
DISL,ioos:station:DISL:KATA:1,2017-08-04T06:00:00Z,30.2583,-88.2131,0.0,7.36,222.2,-999.0,'1111122,1111122,1111122' 
DISL,ioos:station:DISL:KATA:1,2017-08-04T06:30:00Z,30.2583,-88.2131,0.0,8.14,215.6,-999.0,'1111122,1111122,1111122' 
DISL,ioos:station:DISL:KATA:1,2017-08-04T07:00:00Z,30.2583,-88.2131,0.0,8.27,218.7,-999.0,'1111122,1111122,1111122' 
DISL,ioos:station:DISL:KATA:1,2017-08-04T07:30:00Z,30.2583,-88.2131,0.0,9.32,216.2,-999.0,'1111122,1111122,1111122' 
DISL,ioos:station:DISL:KATA:1,2017-08-04T08:00:00Z,30.2583,-88.2131,0.0,8.16,231.3,-999.0,'1111122,1111122,1111122' 
DISL,ioos:station:DISL:KATA:1,2017-08-04T08:30:00Z,30.2583,-88.2131,0.0,8.47,233.9,-999.0,'1111122,1111122,1111122' 
DISL,ioos:station:DISL:KATA:1,2017-08-04T09:00:00Z,30.2583,-88.2131,0.0,9.5,225.4,-999.0,'1111122,1111122,1111122' 
DISL,ioos:station:DISL:KATA:1,2017-08-04T09:30:00Z,30.2583,-88.2131,0.0,8.76,230.7,-999.0,'1111122,1111122,1111122' 
DISL,ioos:station:DISL:KATA:1,2017-08-04T10:00:00Z,30.2583,-88.2131,0.0,7.52,225.2,-999.0,'1111122,1111122,1111122' 
DISL,ioos:station:DISL:KATA:1,2017-08-04T10:30:00Z,30.2583,-88.2131,0.0,7.44,228.6,-999.0,'1111122,1111122,1111122' 
DISL,ioos:station:DISL:KATA:1,2017-08-04T11:00:00Z,30.2583,-88.2131,0.0,7.05,232.2,-999.0,'1111122,1111122,1111122' 
DISL,ioos:station:DISL:KATA:1,2017-08-04T11:30:00Z,30.2583,-88.2131,0.0,6.85,230.6,-999.0,'1111122,1111122,1111122' 
DISL,ioos:station:DISL:KATA:1,2017-08-04T12:00:00Z,30.2583,-88.2131,0.0,6.04,228.0,-999.0,'1111122,1111122,1111122' 
DISL,ioos:station:DISL:KATA:1,2017-08-04T12:30:00Z,30.2583,-88.2131,0.0,6.13,294.1,-999.0,'1111122,1111122,1111122' 
DISL,ioos:station:DISL:KATA:1,2017-08-04T13:00:00Z,30.2583,-88.2131,0.0,6.64,341.3,-999.0,'1111122,1111122,1111122' 
DISL,ioos:station:DISL:KATA:1,2017-08-04T13:30:00Z,30.2583,-88.2131,0.0,7.17,340.2,-999.0,'1111122,1111122,1111122' 
DISL,ioos:station:DISL:KATA:1,2017-08-04T14:00:00Z,30.2583,-88.2131,0.0,6.08,349.1,-999.0,'1111122,1111122,1111122' 
DISL,ioos:station:DISL:KATA:1,2017-08-04T14:30:00Z,30.2583,-88.2131,0.0,6.24,338.7,-999.0,'1111122,1111122,1111122' 
DISL,ioos:station:DISL:KATA:1,2017-08-04T15:00:00Z,30.2583,-88.2131,0.0,11.1,308.6,-999.0,'1111122,1111122,1111122' 
DISL,ioos:station:DISL:KATA:1,2017-08-04T15:30:00Z,30.2583,-88.2131,0.0,11.59,272.1,-999.0,'1111122,1111122,1111122' 
DISL,ioos:station:DISL:KATA:1,2017-08-04T16:00:00Z,30.2583,-88.2131,0.0,9.06,260.6,-999.0,'1111122,1111122,1111122' 
DISL,ioos:station:DISL:KATA:1,2017-08-04T16:30:00Z,30.2583,-88.2131,0.0,7.44,267.4,-999.0,'1111122,1111122,1111122' 
DISL,ioos:station:DISL:KATA:1,2017-08-04T17:00:00Z,30.2583,-88.2131,0.0,5.81,246.0,-999.0,'1111122,1111122,1111122' 
DISL,ioos:station:DISL:KATA:1,2017-08-04T17:30:00Z,30.2583,-88.2131,0.0,7.18,257.5,-999.0,'1111122,1111122,1111122' 
DISL,ioos:station:DISL:KATA:1,2017-08-04T18:00:00Z,30.2583,-88.2131,0.0,4.79,258.9,-999.0,'1111122,1111122,1111122' 
DISL,ioos:station:DISL:KATA:1,2017-08-04T18:30:00Z,30.2583,-88.2131,0.0,5.07,233.6,-999.0,'1111122,1111122,1111122' 
DISL,ioos:station:DISL:KATA:1,2017-08-04T19:00:00Z,30.2583,-88.2131,0.0,8.15,231.8,-999.0,'1111122,1111122,1111122' 
DISL,ioos:station:DISL:KATA:1,2017-08-04T19:30:00Z,30.2583,-88.2131,0.0,8.4,232.9,-999.0,'1111122,1111122,1111122' 
DISL,ioos:station:DISL:KATA:1,2017-08-04T20:00:00Z,30.2583,-88.2131,0.0,9.27,224.3,-999.0,'1111122,1111122,1111122' 
DISL,ioos:station:DISL:KATA:1,2017-08-04T20:30:00Z,30.2583,-88.2131,0.0,9.12,225.9,-999.0,'1111122,1111122,1111122' 
DISL,ioos:station:DISL:KATA:1,2017-08-04T21:00:00Z,30.2583,-88.2131,0.0,9.43,219.5,-999.0,'1111122,1111122,1111122' 
DISL,ioos:station:DISL:KATA:1,2017-08-04T21:30:00Z,30.2583,-88.2131,0.0,10.36,222.6,-999.0,'1111122,1111122,1111122' 
DISL,ioos:station:DISL:KATA:1,2017-08-04T22:00:00Z,30.2583,-88.2131,0.0,10.51,224.6,-999.0,'1111122,1111122,1111122' 
DISL,ioos:station:DISL:KATA:1,2017-08-04T22:30:00Z,30.2583,-88.2131,0.0,10.95,221.9,-999.0,'1111122,1111122,1111122' 
DISL,ioos:station:DISL:KATA:1,2017-08-04T23:00:00Z,30.2583,-88.2131,0.0,10.57,230.9,-999.0,'1111122,1111122,1111122' 
DISL,ioos:station:DISL:KATA:1,2017-08-04T23:30:00Z,30.2583,-88.2131,0.0,11.09,232.6,-999.0,'1111122,1111122,1111122' 
DISL,ioos:station:DISL:KATA:1,2017-08-05T00:00:00Z,30.2583,-88.2131,0.0,10.39,239.0,-999.0,'1111122,1111122,1111122' 
DISL,ioos:station:DISL:KATA:1,2017-08-05T00:30:00Z,30.2583,-88.2131,0.0,10.05,244.2,-999.0,'1111122,1111122,1111122' 
DISL,ioos:station:DISL:KATA:1,2017-08-05T01:00:00Z,30.2583,-88.2131,0.0,8.34,242.1,-999.0,'1111122,1111122,1111122' 
DISL,ioos:station:DISL:KATA:1,2017-08-05T01:30:00Z,30.2583,-88.2131,0.0,6.89,242.4,-999.0,'1111122,1111122,1111122' 
DISL,ioos:station:DISL:KATA:1,2017-08-05T02:00:00Z,30.2583,-88.2131,0.0,7.75,252.8,-999.0,'1111122,1111122,1111122' 
DISL,ioos:station:DISL:KATA:1,2017-08-05T02:30:00Z,30.2583,-88.2131,0.0,8.68,237.5,-999.0,'1111122,1111122,1111122' 
DISL,ioos:station:DISL:KATA:1,2017-08-05T03:00:00Z,30.2583,-88.2131,0.0,7.52,247.9,-999.0,'1111122,1111122,1111122' 
DISL,ioos:station:DISL:KATA:1,2017-08-05T03:30:00Z,30.2583,-88.2131,0.0,6.74,249.4,-999.0,'1111122,1111122,1111122' 
DISL,ioos:station:DISL:KATA:1,2017-08-05T04:00:00Z,30.2583,-88.2131,0.0,6.4,248.1,-999.0,'1111122,1111122,1111122' 
DISL,ioos:station:DISL:KATA:1,2017-08-05T04:30:00Z,30.2583,-88.2131,0.0,5.8,252.2,-999.0,'1111122,1111122,1111122' 
DISL,ioos:station:DISL:KATA:1,2017-08-05T05:00:00Z,30.2583,-88.2131,0.0,7.76,249.5,-999.0,'1111122,1111122,1111122' 
DISL,ioos:station:DISL:KATA:1,2017-08-05T05:30:00Z,30.2583,-88.2131,0.0,7.56,248.8,-999.0,'1111122,1111122,1111122' 